Location: Auckland
(36.8670°S, 174.7670°E)
Time: 13:45:41
(UTC+12:00)

NOSS 2-1 (E) - Pass Details

Date: 24 April 2019
Orbit: 471 x 1733 km, 63.3° (Epoch: 21 May)

Event Time Altitude Azimuth Distance (km) Brightness Sun altitude
Rises 18:26:23 0° 267° (W) 5,026 10.2 -9.1°
Reaches altitude 10° 18:31:04 10° 251° (WSW) 4,032 8.8 -10.0°
Maximum altitude 18:37:55 19° 209° (SSW) 3,234 7.5 -11.3°
Drops below altitude 10° 18:44:16 10° 167° (SSE) 3,682 7.3 -12.6°
Sets 18:48:19 0° 150° (SSE) 4,459 7.6 -13.4°
